GAOFEN 1-03 (43260 NORAD) Tracking and Keplerian Element Data

This shows tracking and keplerian element data for the satellite.

Feedback or suggestion? Click here.




ElementValue
Catalog43260
NameGAOFEN 1-03
Epoch Orbit438
Epoch Day119.85223382
Epoch Year2018
RAAN195.6023
Inclination98.0323
Eccentricity0.0005752
Argument of Perigee205.128
Mean Anonmoly154.9643
Mean Motion14.77359278
Decay Rate7.2E-07
L11 43260U 18031B 18119.85223382 .00000072 00000-0 17475-4 0 9998
L22 43260 98.0323 195.6023 0005752 205.1280 154.9643 14.77359278 4385

Live tracking and technical data element details for GAOFEN 1-03 (NORAD 43260). GAOFEN 1-03 can be tracked NOW for your location showing map with azimuth and elevation plus other details from your city location.

Track the satellite on the map from your city or location and see movement details for azimuth, elevation, latitude, longitude, range, height, and movement on the map or in text.







IsCatalogInMostPopularTable: catalog: 43260, numindb: 52
Update: records affected: 1



GetName: 43260 GAOFEN 1-03

Hit Count: updated at: Sat, 17 Nov 2018 02:14:31 GMT